Overview Statistics Trail Chart Weather Telemetry Raw packets
 

This is the latest recevied weather packets stored in our database for station/object WX5RP. If no packets are shown the sender has not sent any weather packets the latest 10 day(s).

<< 33 34 35 36 37 38 39 >>
Time Temp. Humidity Pressure Rain* Wind** Luminosity Snow
1777497918 17.22° C 24% 1020.6 hPa 0 mm - 899 W/m² -
1777497325 17.22° C 23% 1020.9 hPa 0 mm - 915 W/m² -
1777496716 16.67° C 24% 1020.3 hPa 0 mm - 926 W/m² -
1777496117 16.67° C 23% 1020.7 hPa 0 mm - 936 W/m² -
1777495516 16.67° C 26% 1020.8 hPa 0 mm - 946 W/m² -
1777494917 16.11° C 24% 1020.7 hPa 0 mm - 954 W/m² -
1777494316 16.11° C 26% 1020.8 hPa 0 mm - 961 W/m² -
1777493716 16.11° C 26% 1021.1 hPa 0 mm - 963 W/m² -
1777493116 16.11° C 26% 1020.9 hPa 0 mm - 968 W/m² -
1777492517 15.56° C 28% 1020.7 hPa 0 mm - 968 W/m² -
1777491916 16.11° C 25% 1020.4 hPa 0 mm - 969 W/m² -
1777491316 15° C 27% 1020.5 hPa 0 mm - 968 W/m² -
1777490716 14.44° C 26% 1021 hPa 0 mm - 973 W/m² -
1777490116 14.44° C 27% 1021 hPa 0 mm - 966 W/m² -
1777489516 13.89° C 27% 1021.2 hPa 0 mm - 958 W/m² -
1777488916 13.89° C 27% 1021.5 hPa 0 mm - 950 W/m² -
1777488316 13.89° C 28% 1021.5 hPa 0 mm - 930 W/m² -
1777487716 13.89° C 28% 1021.6 hPa 0 mm - 926 W/m² -
1777487116 13.33° C 29% 1022 hPa 0 mm - 909 W/m² -
1777486516 12.78° C 29% 1021.7 hPa 0 mm - 898 W/m² -
1777485916 12.22° C 36% 1021.3 hPa 0 mm - 884 W/m² -
1777485316 11.67° C 43% 1021.7 hPa 0 mm - 868 W/m² -
1777484716 11.67° C 44% 1021.7 hPa 0 mm - 781 W/m² -
1777484116 12.22° C 44% 1022 hPa 0 mm - 827 W/m² -
1777483515 11.11° C 45% 1022.4 hPa 0 mm - 803 W/m² -

* Rain latest hour (hover to see other rain measurements)
** Current wind speed in m/s (hover to see current wind gust speed)